User: anonymous   Login
Location: Unspecified
(0.0000°N, 0.0000°E)
Time: 20:43:17
(UTC+00:00)
Language:

OBJECT C - Orbit

View from above orbital plane
View from above orbital plane
View from above satellite
View from above satellite

Ground track
Ground track

The orbit is defined by the following mean orbital elements,

1 64089U          26145.62932572 +.00000000 +00000-0 +28212-3 0 00002
2 64089  97.4690 220.2165 0010957 112.9740 247.2648 15.13013293    09
Epoch (UTC): 25 May 2026 15:06:13
Eccentricity: 0.0010957
inclination: 97.4690°
perigee height: 519 km
apogee height: 535 km
right ascension of ascending node: 220.2165°
argument of perigee: 112.9740°
revolutions per day: 15.13013293
mean anomaly at epoch: 247.2648°

The dashed part of the orbit path shows where the satellite is in the earth's shadow,  

DLR